Regional Weather Roundup
Issued by NWS

Home | Current Version | Previous Version | Text Only | Print | Product List | Glossary On
Versions: 1 2 3 4 5 6 7 8 9 10 11 12 13 14 15 16 17 18 19 20 21 22 23 24 25 26 27 28 29 30 31 32 33 34 35 36 37 38 39 40 41 42 43 44 45 46 47 48 49 50
000
ASUS44 KMEG 251110
RWRTN
TENNESSEE HOURLY STATE WEATHER ROUNDUP
NATIONAL WEATHER SERVICE MEMPHIS TN
500 AM CST SUN JAN 25 2015

TNZ002-004-019-021-049-052-054-088>092-251200-
WEST TENNESSEE

CITY           SKY/WX    TMP DP  RH WIND       PRES   REMARKS
MEMPHIS INTL   MOCLDY    41  33  73 S8        29.81F
NWS MEMPHIS      N/A     40 N/A N/A MISG        N/A
JACKSON        MOCLDY    39  33  79 SW12      29.80S WCI  32
DYERSBURG      CLOUDY    41  25  52 S5        29.78F
UNION CITY     CLEAR     36  34  93 S8        29.74F WCI  29
PARIS          CLEAR     36  30  80 S9        29.76F WCI  29
LEXINGTON      CLEAR     34  30  86 S3        29.79F
SAVANNAH       CLEAR     36  32  87 SE6       29.84S WCI  31
$$

TNZ008-025-027-028-033-062-065-066-251200-
NORTH MIDDLE TENNESSEE

CITY           SKY/WX    TMP DP  RH WIND       PRES   REMARKS
NASHVILLE      MOCLDY    34  30  85 S3        29.81F
CLARKSVILLE    MOCLDY    40  32  73 S9        29.77F WCI  34
SMYRNA         PTCLDY    32  30  92 S8        29.83F WCI  25
COOKEVILLE     CLEAR     34  30  86 S5        29.82F WCI  30
CROSSVILLE     PTCLDY    32  27  81 CALM      29.85F
$$

TNZ061-075-076-078-094-096-097-251200-
SOUTH MIDDLE TENNESSEE

CITY           SKY/WX    TMP DP  RH WIND       PRES   REMARKS
FAYETTEVILLE   CLEAR     34  28  80 N15G29    29.86F WCI  24
TULLAHOMA      CLEAR     34  28  80 S3        29.85F
WINCHESTER     CLEAR     32  28  86 SE3       29.87F
MCMINNVILLE    CLEAR     36  30  80 S3        29.83F
COLUMBIA         N/A     36  36 100 S8        29.80F WCI  29
SHELBYVILLE    CLEAR     34  30  86 SE5       29.85F WCI  30
$$

TNZ017-018-042-046-047-251200-
NORTHEAST TENNESSEE

CITY           SKY/WX    TMP DP  RH WIND       PRES   REMARKS
TRI CITIES     CLEAR     26  24  92 CALM      29.89S
ELIZABETHTON   SUNNY     25  23  93 CALM      29.89R
$$

TNZ012-013-036-069-073-074-251200-
CENTRAL EAST TENNESSEE

CITY           SKY/WX    TMP DP  RH WIND       PRES   REMARKS
KNOXVILLE      PTCLDY    33  27  78 SW9       29.89F WCI  25
OAK RIDGE      CLEAR     29  26  89 CALM      29.91F
GATLINBURG     SUNNY     25  25 100 CALM      29.89F
MORRISTOWN     SUNNY     28  27  93 CALM      29.89S
$$

TNZ083-085-099-251200-
SOUTHEAST TENNESSEE

CITY           SKY/WX    TMP DP  RH WIND       PRES   REMARKS
CHATTANOOGA    PTCLDY    30  27  88 CALM      29.91F
$$

SKY/WX REPORTED AS FAIR MEANS FEW OR NO CLOUDS BELOW
12 THOUSAND FEET.



USA.gov is the U.S. government's official web portal to all federal, state and local government web resources and services.